Wright-Patt AFB, OH

1:42 PM EDT on July 22, 2017 (GMT -0400)
Wright-Patterson Air Force Base

Weather History for KFFO - November, 2012

Change the Weather History Date:

Wednesday, November 21, 2012

  Actual Average Record
Temperature  
Mean Temperature 49 °F -  
Max Temperature 61 °F 48 °F 66 °F (1999)
Min Temperature 37 °F 31 °F 11 °F (2014)
Degree Days  
Heating Degree Days 16    
Moisture  
Dew Point 38 °F    
Average Humidity 71    
Maximum Humidity 95    
Minimum Humidity 42    
Precipitation  
Precipitation 0.00 in - - ()
Sea Level Pressure  
Sea Level Pressure 30.21 in    
Wind  
Wind Speed 0 mph (SE)    
Max Wind Speed 4 mph    
Max Gust Speed -    
Visibility 10 miles    
Events Fog    
Averages and records for this station are not official NWS values.
T = Trace of Precipitation, MM = Missing Value Source: NWS Daily Summary

Daily Weather History Graph

Daily Weather History Graph

Search for Another Location

Airport or City:

Trip Planner

Search our weather history database for the weather conditions in past years. The results will help you decide how hot, cold, wet, or windy it might be!

Date:

Astronomy

Nov. 21, 2012 Rise Set
Actual Time 7:28 AM EST 5:15 PM EST
Civil Twilight 6:58 AM EST 5:45 PM EST
Nautical Twilight 6:25 AM EST 6:18 PM EST
Astronomical Twilight 5:53 AM EST 6:50 PM EST
Moon 1:31 PM EST (11/21) 12:47 AM EST (11/21)
Length of Visible Light 10h 46m
Length of Day
9h 47m
First Quarter, 61% of the Moon is Illuminated
Nov 21
First Quarter
Nov 28
Full
Dec 6
Last Quarter
Dec 13
New
Dec 20
First Quarter

Hourly Weather History & Observations

Time (EST) Temp. Dew Point Humidity Pressure Visibility Wind Dir Wind Speed Gust Speed Precip Events Conditions
12:55 AM 46.4 °F 40.5 °F 80% 30.16 in 10.0 mi Calm Calm - N/A   Overcast
1:55 AM 47.3 °F 41.0 °F 79% 30.15 in 10.0 mi Calm Calm - N/A   Overcast
2:55 AM 46.2 °F 41.2 °F 83% 30.16 in 10.0 mi Calm Calm - N/A   Overcast
3:55 AM 44.2 °F 40.1 °F 85% 30.17 in 10.0 mi Calm Calm - N/A   Mostly Cloudy
4:55 AM 40.1 °F 36.0 °F 85% 30.18 in 10.0 mi Calm Calm - N/A   Scattered Clouds
5:55 AM 38.7 °F 35.2 °F 87% 30.20 in 10.0 mi Calm Calm - N/A   Partly Cloudy
6:55 AM 37.2 °F 34.0 °F 88% 30.21 in 10.0 mi Calm Calm - N/A Fog Shallow Fog
7:55 AM 37.4 °F 36.1 °F 95% 30.23 in 6.0 mi Calm Calm - N/A   Clear
8:55 AM 41.2 °F 37.8 °F 88% 30.25 in 7.0 mi Calm Calm - N/A   Partly Cloudy
9:55 AM 48.0 °F 41.0 °F 77% 30.27 in 10.0 mi NNE 3.5 mph - N/A   Clear
10:55 AM 54.0 °F 39.9 °F 59% 30.25 in 10.0 mi SSE 3.5 mph - N/A   Clear
11:44 AM 57.2 °F 39.2 °F 51% 30.22 in 10.0 mi SSE 2.3 mph - N/A   Clear
11:55 AM 57.7 °F 38.5 °F 49% 30.24 in 10.0 mi Calm Calm - N/A   Clear
12:55 PM 59.0 °F 38.3 °F 46% 30.23 in 10.0 mi WNW 3.5 mph - N/A   Clear
1:55 PM 60.8 °F 38.5 °F 44% 30.22 in 10.0 mi Calm Calm - N/A   Clear
2:55 PM 61.0 °F 38.3 °F 43% 30.21 in 10.0 mi Calm Calm - N/A   Clear
3:55 PM 61.3 °F 37.9 °F 42% 30.21 in 10.0 mi Calm Calm - N/A   Clear
4:55 PM 58.8 °F 38.8 °F 47% 30.21 in 10.0 mi Calm Calm - N/A   Clear
5:55 PM 53.4 °F 38.8 °F 58% 30.22 in 10.0 mi Calm Calm - N/A   Clear
6:55 PM 46.9 °F 37.9 °F 71% 30.22 in 10.0 mi Calm Calm - N/A   Clear
7:55 PM 43.0 °F 35.8 °F 76% 30.22 in 10.0 mi Calm Calm - N/A   Clear
8:55 PM 40.8 °F 35.8 °F 82% 30.23 in 10.0 mi Calm Calm - N/A   Clear
9:55 PM 40.5 °F 36.1 °F 85% 30.23 in 10.0 mi Calm Calm - N/A   Clear
10:55 PM 39.7 °F 34.5 °F 82% 30.22 in 10.0 mi Calm Calm - N/A   Clear
11:52 PM 37.4 °F 33.8 °F 87% 30.22 in 8.0 mi Calm Calm - N/A   Clear
11:55 PM 37.2 °F 34.2 °F 89% 30.22 in 8.0 mi Calm Calm - N/A   Clear